Snowfall_Accumulation
2.5 2.8 2.9 3.2 3.4 3.6 4.4 4.1 4.5 4.0 4.3 4.7 4.7 4.7 4.8 5.0 5.2 5.6 5.6 5.6 5.9 5.8 6.9 7.4 7.5 7.1 6.4 6.0 6.9 6.6 6.1 6.1 6.1 6.0 6.2 6.4 6.8 8.0 7.5 8.6 12.1 13.3 9.5 4.2 2.5 2.3 2.7 2.2 1.5 2.0 1.6 2.5 2.8 2.8 2.3 1.7 1.7 1.9 2.1 2.2 2.4 2.8 2.7
3.0 3.1 3.2 3.4 3.5 3.5 3.8 4.7 4.9 4.7 5.1 5.4 5.2 5.2 5.1 5.8 6.5 6.3 6.4 6.1 6.6 6.0 6.2 6.9 7.7 7.4 6.9 6.6 7.9 7.8 7.7 7.3 6.8 6.9 7.1 6.8 7.2 8.1 8.1 7.1 10.3 11.7 10.1 8.4 3.9 3.2 2.3 2.6 1.5 2.4 1.4 2.3 2.5 3.1 2.9 3.0 2.6 2.3 2.2 2.3 2.4 2.7 2.9
3.3 3.4 3.5 3.5 3.4 3.4 3.8 3.8 4.2 3.9 4.8 5.4 5.5 5.6 5.4 5.4 5.8 6.3 6.6 6.5 6.4 6.1 6.0 7.0 7.5 7.6 6.9 6.8 8.4 8.3 8.2 7.6 7.9 7.2 7.4 7.3 6.4 7.2 6.9 6.8 7.9 10.5 11.5 8.9 6.9 3.9 3.8 3.3 2.5 2.6 2.5 2.1 2.4 2.5 2.3 3.3 3.6 3.3 3.1 2.8 2.7 3.0 3.0
3.5 3.7 3.6 3.9 4.0 4.3 3.9 3.9 3.7 3.9 4.3 4.6 4.6 5.2 5.6 5.2 5.2 5.6 6.1 6.5 6.4 6.4 6.9 7.6 8.2 8.1 7.6 8.0 9.0 8.9 8.7 8.8 8.8 8.9 8.7 8.2 7.2 6.8 6.6 6.0 6.3 7.3 9.7 8.9 8.6 5.7 4.8 3.7 3.4 2.7 2.1 2.2 2.2 3.1 3.7 3.5 3.7 3.5 3.8 3.3 3.3 3.3 3.8
3.7 3.9 4.1 4.2 4.0 3.8 3.7 3.8 3.7 3.9 4.0 3.9 3.9 4.3 4.5 4.9 5.3 5.4 5.7 5.7 6.1 6.6 7.2 7.5 7.8 7.4 7.4 8.0 9.7 9.4 9.6 9.5 10.1 10.3 10.5 10.7 9.4 9.3 8.5 7.8 7.6 7.8 7.8 9.9 9.7 7.3 4.5 3.6 3.4 2.9 2.9 2.6 3.6 3.9 4.2 4.1 4.6 4.6 5.0 4.6 4.2 3.8 4.0
4.3 4.3 4.1 4.0 3.9 3.9 4.2 3.9 4.0 4.2 4.7 4.1 3.7 3.7 3.9 4.1 4.3 4.4 4.7 5.0 5.3 5.6 6.2 6.9 7.0 6.9 7.2 7.8 9.1 9.5 9.0 9.9 11.2 11.2 11.4 11.8 11.8 11.8 11.0 11.4 10.9 10.0 10.4 10.7 10.3 8.2 7.0 4.2 4.2 4.0 3.9 3.5 3.9 4.4 5.0 5.7 5.7 4.9 5.4 6.1 6.7 6.0 5.3
4.6 4.4 4.3 4.1 4.0 4.1 4.1 4.0 3.9 4.1 4.2 4.1 4.0 4.2 4.4 4.5 4.4 4.3 4.2 4.4 4.4 4.2 4.5 5.0 5.4 5.9 6.1 7.2 7.8 8.5 8.6 8.8 9.0 10.1 11.1 11.3 11.8 11.4 12.7 14.6 14.8 13.8 13.4 13.1 12.6 10.9 8.3 7.1 4.9 4.2 5.1 3.6 3.1 3.5 4.0 5.5 6.8 7.8 6.4 6.2 6.3 6.8 6.0
4.7 4.2 4.1 4.2 4.2 3.9 3.9 4.0 4.0 4.0 4.4 4.5 4.4 4.7 5.1 5.0 5.7 5.8 5.3 4.6 4.1 4.1 4.4 4.3 4.3 4.4 4.5 4.8 5.2 6.0 6.3 7.0 8.7 9.1 10.6 9.8 10.3 11.5 13.7 15.3 14.7 14.6 14.8 15.2 14.6 13.0 10.9 8.0 6.8 5.3 4.3 4.0 4.3 5.2 5.2 4.7 5.9 7.9 7.4 7.3 6.6 6.5 7.1
4.8 4.7 4.8 4.2 4.1 4.4 3.9 4.3 4.2 4.3 5.4 5.5 5.4 6.1 7.8 7.8 8.0 7.4 7.0 6.5 6.0 5.3 4.8 4.5 4.3 4.1 4.4 3.9 3.8 4.1 4.6 5.5 6.7 8.6 10.7 10.1 10.1 12.2 14.0 15.3 15.3 15.9 16.2 16.0 15.0 14.0 10.2 9.6 8.2 7.0 6.3 5.9 6.2 7.3 7.4 5.2 5.0 6.5 5.6 5.6 6.0 6.7 6.5
4.9 5.3 6.7 5.1 4.7 4.5 5.0 4.7 4.4 4.5 6.4 6.2 9.7 12.3 13.4 13.8 13.2 12.4 12.0 11.3 10.0 8.2 6.7 5.9 5.2 4.4 3.6 3.6 3.9 4.4 4.8 5.8 6.8 7.4 8.7 10.7 11.3 12.6 14.6 15.9 16.6 16.2 15.1 15.3 16.5 14.6 11.8 11.8 10.1 7.9 6.7 6.2 5.4 4.4 3.9 4.6 5.3 6.6 5.6 4.9 6.0 6.0 7.1
6.4 6.0 5.9 5.6 5.7 6.1 5.8 5.6 4.9 4.8 7.6 11.4 14.6 16.9 18.9 18.4 16.5 14.0 12.7 11.4 10.5 9.3 7.0 5.7 5.0 4.7 4.3 4.2 4.3 4.7 5.0 5.8 6.2 7.3 8.2 8.7 9.4 11.3 15.1 19.1 20.4 18.6 15.6 16.1 15.7 12.7 11.1 11.0 9.7 7.3 6.5 6.5 5.8 4.8 5.3 5.5 5.4 6.7 6.6 7.8 8.5 9.6 7.3
7.4 6.1 5.8 6.0 6.2 6.5 6.2 6.2 5.1 5.8 11.2 13.7 18.1 23.5 24.2 22.0 19.6 16.7 14.4 12.5 11.5 10.0 8.8 7.7 6.7 6.1 5.5 5.5 5.3 5.5 5.8 6.5 6.8 7.5 7.9 8.6 10.0 11.2 13.5 16.7 17.6 19.7 19.3 17.2 17.3 16.2 13.4 11.6 10.0 7.3 6.3 6.2 6.3 7.0 6.5 6.3 7.0 7.9 8.8 9.0 9.0 8.2 8.2
7.0 6.9 6.9 7.1 8.0 7.4 6.8 6.8 5.6 7.2 11.8 15.1 20.9 26.0 29.1 24.7 20.8 18.2 14.9 12.2 10.8 9.8 8.8 8.0 8.4 7.8 7.1 6.1 5.0 5.5 5.7 6.2 6.4 6.2 6.8 7.8 8.5 9.0 11.1 15.4 20.6 19.7 17.1 18.8 19.8 19.4 15.6 11.6 10.4 10.1 7.4 5.8 6.7 7.4 9.3 8.2 9.3 9.2 9.1 9.3 9.3 8.0 6.4
8.2 8.1 8.7 9.1 9.6 9.3 8.9 8.3 7.1 8.0 13.5 19.3 23.3 28.4 33.3 27.2 23.0 18.8 15.5 12.7 10.8 9.3 8.4 7.8 8.0 8.3 7.8 6.4 5.8 5.9 6.1 6.2 6.7 6.9 7.2 8.2 8.9 9.3 8.7 9.9 10.8 11.0 10.8 13.2 17.2 19.7 19.2 11.5 9.8 9.2 7.7 8.3 7.5 10.0 12.7 12.7 12.5 10.6 11.1 10.9 10.8 7.7 7.1
9.7 9.8 10.2 10.4 11.5 11.4 11.3 9.5 8.0 11.0 17.1 20.8 24.7 29.1 35.4 29.5 23.7 18.6 14.7 11.8 10.2 9.6 8.9 8.0 7.7 7.5 7.3 6.6 6.6 6.3 6.1 6.8 7.6 8.1 9.2 8.8 8.3 7.5 6.9 6.3 6.2 7.4 9.7 11.2 11.0 13.3 14.5 12.5 10.1 8.8 7.9 7.8 9.2 12.1 12.9 12.1 11.7 10.3 11.2 11.4 10.1 10.3 9.5
8.6 9.1 9.2 8.9 9.7 10.9 10.8 8.5 7.9 12.2 17.1 19.6 24.8 31.7 31.2 29.3 23.1 18.4 14.5 11.6 9.8 8.9 7.9 7.3 7.6 8.4 8.4 7.5 7.0 6.1 9.2 8.5 9.2 11.5 12.1 10.9 8.6 7.0 5.9 5.5 4.8 7.2 9.2 8.3 11.0 12.4 12.1 11.8 11.4 13.9 14.1 13.3 13.1 12.6 12.1 11.5 11.8 12.6 14.8 17.2 18.5 16.0 9.7
6.8 7.2 8.1 8.4 8.6 9.1 8.5 7.8 7.7 9.7 15.3 17.6 23.0 33.7 36.1 31.5 23.8 18.1 14.6 11.2 9.5 8.6 7.9 7.2 7.1 7.7 8.3 7.7 7.0 6.5 10.5 13.1 15.0 17.9 17.4 15.5 12.5 9.4 8.0 6.6 4.4 7.5 15.0 22.4 27.9 31.8 27.4 24.8 24.7 25.6 28.4 27.9 27.0 20.0 19.2 22.0 25.1 22.5 15.7 17.5 19.4 14.1 9.1
7.1 7.1 7.4 8.3 8.4 8.3 8.7 7.9 6.9 8.4 12.6 16.2 21.2 30.5 33.6 31.4 27.1 20.4 15.7 13.1 10.8 9.7 9.1 7.4 7.4 7.4 8.1 8.2 7.0 9.1 12.6 17.8 19.3 25.4 22.7 20.0 17.3 14.3 11.6 7.6 4.4 3.7 4.3 10.9 18.2 22.7 24.2 27.3 24.5 23.3 23.6 26.3 25.3 24.0 17.8 25.5 31.6 20.1 13.0 15.4 14.2 14.0 8.2
7.3 7.1 7.1 7.2 7.3 7.2 8.3 8.2 7.0 7.0 10.9 14.3 21.8 27.3 30.4 29.8 25.8 22.3 17.0 14.3 12.8 10.2 8.6 7.3 6.3 7.1 8.6 8.3 8.7 14.2 18.0 25.6 21.9 25.8 23.5 18.6 17.5 17.4 14.8 9.4 6.0 4.7 4.8 5.0 6.3 7.5 8.5 10.1 12.6 11.8 12.3 11.2 12.3 14.1 16.7 17.6 20.1 16.8 16.4 18.0 14.2 11.9 10.5
6.2 6.4 6.4 6.5 7.6 8.2 8.1 8.2 7.5 7.4 8.1 15.8 23.1 24.4 26.1 27.5 26.3 24.2 19.8 16.8 14.5 14.0 12.0 9.3 8.1 6.8 7.2 11.6 17.1 17.4 23.1 24.8 32.1 28.9 28.9 23.1 22.4 20.2 14.7 8.1 6.2 6.2 6.6 6.6 6.3 5.9 5.1 6.1 6.4 8.2 10.0 10.0 9.4 8.9 10.0 12.5 11.8 13.3 14.9 16.0 14.7 12.1 11.0
6.0 6.6 7.0 6.8 7.2 8.1 8.3 8.2 8.0 7.0 8.4 16.4 19.8 18.8 26.9 27.3 23.4 19.1 17.5 17.4 16.7 14.0 12.0 10.2 8.6 7.3 6.0 7.4 11.8 16.1 22.0 24.9 31.9 34.2 28.8 26.7 24.1 17.9 13.1 11.0 13.2 10.7 7.8 8.4 7.5 6.5 5.8 5.5 6.1 7.5 9.5 10.7 9.9 9.2 8.9 10.2 8.1 8.4 8.4 11.6 14.1 14.0 12.6
6.8 6.9 6.3 5.9 6.3 7.5 7.8 7.3 6.9 7.6 8.1 13.3 17.6 19.0 21.9 23.9 22.2 17.2 19.2 20.8 16.2 11.9 9.8 8.0 7.2 7.2 6.4 6.6 10.5 17.5 25.7 29.7 33.2 35.3 26.2 24.0 27.4 28.3 24.3 15.8 13.2 10.9 9.9 8.9 8.4 7.9 7.4 6.9 6.7 7.3 7.9 10.1 10.7 9.7 9.2 9.1 8.2 6.9 6.0 5.4 6.2 8.7 10.9
7.0 6.9 6.5 6.4 6.8 7.1 7.1 6.9 6.7 7.5 7.4 9.1 13.6 16.0 18.7 21.9 24.6 22.0 18.2 18.7 17.3 12.8 9.6 7.7 7.4 6.7 6.9 9.2 18.2 24.4 30.1 30.3 31.1 27.3 26.8 27.6 25.6 24.7 21.0 19.4 19.8 17.1 15.2 12.6 10.5 9.6 10.2 8.5 6.8 7.2 6.9 6.9 9.0 9.0 7.6 8.1 7.6 7.2 6.6 6.7 5.7 5.2 5.6
7.3 6.8 7.2 7.6 7.4 7.0 6.5 6.4 7.0 6.6 5.9 6.6 9.2 14.0 18.9 19.3 22.6 22.3 18.9 16.8 15.0 12.0 10.5 9.5 8.9 10.1 12.8 19.7 20.6 22.5 25.5 27.2 23.9 23.3 26.4 25.7 22.4 16.8 16.7 20.0 22.2 21.8 20.5 16.8 13.9 12.5 10.4 8.5 6.0 5.7 5.4 5.9 5.4 7.4 8.7 8.5 8.6 7.6 7.2 7.1 6.4 5.3 5.2
6.8 7.5 7.4 7.3 7.3 7.3 6.9 6.7 7.0 6.3 5.8 5.8 6.6 9.0 11.8 14.6 17.2 16.2 14.1 13.9 11.7 10.9 10.9 10.0 11.4 14.5 16.4 18.0 19.3 19.9 18.0 17.3 15.3 15.6 19.3 17.0 16.8 17.3 17.5 19.3 18.4 17.1 17.6 20.3 18.9 14.1 9.9 6.7 5.1 4.4 4.3 4.3 5.4 6.7 9.2 10.7 10.7 10.3 8.6 8.1 7.5 7.0 5.7
7.8 7.5 7.1 7.4 7.0 7.4 7.8 8.1 6.9 6.1 6.2 6.5 7.0 7.6 8.1 10.0 10.4 10.8 10.4 11.2 10.3 8.0 7.2 7.8 10.9 8.7 8.8 9.6 10.4 12.3 14.8 18.5 13.8 11.5 11.0 12.0 13.6 15.1 17.5 17.9 16.0 13.6 13.8 14.5 12.3 11.3 10.2 7.4 5.4 5.6 5.8 5.8 6.4 8.0 9.4 10.7 12.2 13.2 12.3 10.6 10.6 10.0 9.3
8.4 8.8 9.0 9.1 8.5 8.7 8.7 8.3 6.5 6.2 6.9 8.5 10.2 10.5 9.8 9.7 9.9 9.9 9.1 9.5 10.5 9.3 8.1 7.3 7.8 8.2 8.6 8.8 8.7 10.7 12.4 11.7 9.6 9.9 12.7 11.6 11.0 14.4 15.5 18.8 13.7 11.5 11.6 10.3 9.4 9.2 8.1 7.5 8.1 7.9 9.6 10.1 9.2 9.2 8.4 8.2 9.5 11.8 12.0 10.3 9.9 9.9 10.1
13.2 14.2 14.5 15.3 13.3 12.7 10.5 8.7 7.3 7.2 9.4 13.8 14.4 13.7 11.8 11.2 11.6 12.6 12.7 10.4 9.9 10.0 9.3 9.9 9.3 9.5 9.6 10.9 11.8 12.0 12.4 12.1 11.8 10.5 9.6 9.5 10.6 12.0 13.0 14.1 13.3 12.6 13.2 11.9 11.4 11.8 10.9 11.8 11.8 13.0 11.7 10.2 9.4 7.9 6.9 7.2 8.7 9.2 11.5 12.4 12.1 15.0 13.8
22.9 21.0 21.2 18.9 17.6 18.4 16.8 13.6 13.0 11.2 12.0 15.8 15.7 16.7 17.2 17.4 15.8 14.5 14.4 11.5 11.0 12.9 12.6 11.1 11.0 10.8 10.3 9.7 9.7 10.1 10.4 9.9 9.6 9.1 9.4 10.8 11.3 10.7 11.0 11.3 13.3 14.9 13.0 11.3 12.6 14.3 14.1 13.8 13.3 12.2 10.6 10.8 10.7 9.1 7.7 7.6 9.4 9.8 10.3 12.2 14.8 16.7 13.5
28.0 27.1 25.8 24.2 18.0 17.2 21.7 20.8 16.2 13.2 18.5 20.7 21.2 24.0 20.4 19.0 20.7 18.1 16.1 13.3 12.3 12.1 12.8 11.4 10.2 9.4 9.1 8.6 8.0 8.3 8.1 7.9 8.1 8.5 8.7 9.6 10.4 10.4 10.8 11.3 12.0 12.6 12.1 11.3 12.5 12.9 13.9 13.2 12.5 11.3 10.6 10.9 10.8 10.0 8.8 8.1 9.9 11.3 11.4 14.0 16.7 17.1 14.7
24.3 25.9 21.3 21.7 25.0 19.9 13.6 12.2 11.3 11.5 18.2 21.6 26.2 26.1 23.0 24.2 21.3 20.5 19.2 15.8 15.5 14.1 12.0 10.8 9.5 8.8 7.9 7.5 7.3 7.6 7.3 7.4 7.9 7.9 8.1 8.7 9.2 9.4 10.1 10.6 11.0 12.0 11.7 11.6 12.1 12.6 13.3 12.5 12.1 11.1 9.6 9.8 8.7 8.8 9.5 10.3 11.2 11.0 12.5 13.4 13.1 13.9 12.3
19.6 21.5 23.9 20.7 21.4 24.3 21.4 15.7 14.1 14.5 22.0 25.5 28.9 29.6 24.9 23.8 24.2 22.5 19.6 16.1 15.8 16.4 12.7 10.0 8.9 8.6 8.2 7.5 7.6 6.9 6.5 7.2 8.3 8.6 8.9 8.6 7.9 7.2 7.2 8.3 9.7 10.7 11.1 11.0 11.1 11.1 11.9 12.8 12.7 11.9 10.6 9.4 8.8 8.9 9.2 10.1 11.9 13.1 15.4 14.4 13.0 12.3 10.9
11.3 13.4 16.0 17.0 20.1 22.2 23.6 20.1 18.8 18.7 22.7 24.8 26.5 25.0 20.0 19.3 18.8 15.7 14.7 12.8 12.5 12.2 11.1 9.7 9.1 9.0 8.4 8.2 7.9 7.5 7.7 8.1 8.8 8.2 7.7 7.5 7.8 7.0 6.0 6.1 6.5 7.8 9.1 9.9 10.1 10.5 10.9 12.4 11.7 12.3 11.9 11.5 10.1 10.0 9.9 8.7 9.2 9.2 9.9 11.5 13.2 12.0 10.9
7.9 7.7 8.2 8.6 10.7 13.3 15.1 14.1 14.2 14.3 14.2 16.2 18.3 17.8 18.0 19.0 16.3 12.7 14.1 13.4 13.3 11.8 10.9 9.2 8.8 8.5 8.7 8.7 8.8 9.0 9.0 9.2 9.1 7.8 7.3 6.5 6.1 6.2 5.9 5.3 5.5 6.6 7.6 8.2 8.9 9.7 9.5 10.2 10.7 12.0 12.8 13.4 11.8 10.5 9.5 9.8 8.8 8.6 10.4 11.5 10.9 10.2 9.6
7.3 6.1 6.7 8.8 8.9 10.2 11.2 10.2 10.0 11.6 13.9 15.8 16.6 16.9 19.6 16.1 15.1 15.5 12.4 9.8 10.2 10.8 10.5 9.7 8.9 8.7 8.1 8.2 8.7 8.8 9.0 9.0 8.9 8.1 7.6 7.2 6.5 5.7 5.6 6.2 5.8 5.7 6.1 6.5 7.1 8.0 8.4 8.7 9.8 10.4 10.4 10.8 11.1 11.2 11.4 10.2 9.5 9.3 9.1 9.6 9.8 9.4 8.9
7.9 7.1 6.5 7.6 7.4 7.7 9.7 10.2 9.7 10.4 13.3 17.6 17.6 17.8 16.7 18.7 15.7 12.4 10.9 9.5 8.8 9.4 9.9 9.8 10.0 9.8 9.6 9.9 10.3 10.3 9.8 9.4 9.5 9.4 9.1 8.5 8.0 7.1 6.6 6.7 6.7 6.4 6.2 5.9 6.0 6.6 7.0 7.6 8.5 9.5 10.6 10.5 10.0 9.6 8.9 8.3 8.1 8.2 8.4 8.7 9.1 9.8 9.4